• In Deutschland
  • Länderverzeichnis
  • Für 7 Tage
  • Wassertemperatur
  • Satellitenkarten
  • Wetterkarte
  • Widgets
  • user-avatar
    Anmelden

    Stündliche Wetter Vaterstetten

    Heute, 17 Oktober, Dienstag

    Zeit Temperatur Niederschläge Wind Luftdruck Luftfeuchtigkeit
    00:00 +13°C° 0 mm 1 m/S 721 mmHg 81%
    01:00 +13°C° 0 mm 1 m/S 721 mmHg 78%
    02:00 +12°C° 0 mm 1 m/S 721 mmHg 77%
    03:00 +12°C° 0 mm 1 m/S 720 mmHg 76%
    04:00 +12°C° 0 mm 1 m/S 720 mmHg 75%
    05:00 +12°C° 0 mm 1 m/S 720 mmHg 74%
    06:00 +11°C° 0 mm 1 m/S 720 mmHg 74%
    07:00 +11°C° 0 mm 1 m/S 720 mmHg 73%
    08:00 +14°C° 0 mm 1 m/S 720 mmHg 68%
    09:00 +16°C° 0 mm 1 m/S 720 mmHg 62%
    10:00 +18°C° 0 mm 0 m/S 720 mmHg 57%
    11:00 +19°C° 0 mm 0 m/S 720 mmHg 56%
    12:00 +22°C° 0 mm 1 m/S 720 mmHg 54%
    13:00 +23°C° 0 mm 1 m/S 719 mmHg 53%
    14:00 +22°C° 0 mm 1 m/S 719 mmHg 59%
    15:00 +21°C° 0 mm 1 m/S 718 mmHg 65%
    16:00 +21°C° 0 mm 1 m/S 718 mmHg 71%
    17:00 +19°C° 0 mm 1 m/S 718 mmHg 76%
    18:00 +16°C° 0 mm 1 m/S 717 mmHg 81%
    19:00 +14°C° 0 mm 1 m/S 717 mmHg 87%
    20:00 +13°C° 0 mm 1 m/S 717 mmHg 86%
    21:00 +13°C° 0 mm 1 m/S 717 mmHg 85%
    22:00 +13°C° 0 mm 1 m/S 717 mmHg 85%
    23:00 +12°C° 0 mm 1 m/S 716 mmHg 84%

    Morgen, 18 Oktober, Mittwoch

    Zeit Temperatur Niederschläge Wind Luftdruck Luftfeuchtigkeit
    00:00 +12°C° 0 mm 1 m/S 716 mmHg 83%
    01:00 +12°C° 0 mm 1 m/S 716 mmHg 83%
    02:00 +11°C° 0 mm 1 m/S 716 mmHg 82%
    03:00 +11°C° 0 mm 1 m/S 715 mmHg 81%
    04:00 +11°C° 0 mm 1 m/S 715 mmHg 80%
    05:00 +11°C° 0 mm 1 m/S 715 mmHg 80%
    06:00 +11°C° 0 mm 1 m/S 715 mmHg 79%
    07:00 +11°C° 0 mm 1 m/S 715 mmHg 78%
    08:00 +13°C° 0 mm 1 m/S 715 mmHg 73%
    09:00 +15°C° 0 mm 1 m/S 715 mmHg 68%
    10:00 +18°C° 0 mm 1 m/S 715 mmHg 62%
    11:00 +19°C° 0 mm 1 m/S 715 mmHg 60%
    12:00 +20°C° 0 mm 1 m/S 715 mmHg 57%
    13:00 +21°C° 0 mm 1 m/S 714 mmHg 55%
    14:00 +21°C° 0 mm 1 m/S 714 mmHg 60%
    15:00 +20°C° 0 mm 1 m/S 714 mmHg 64%
    16:00 +19°C° 0 mm 1 m/S 713 mmHg 69%
    17:00 +18°C° 0 mm 1 m/S 713 mmHg 75%
    18:00 +15°C° 0 mm 1 m/S 714 mmHg 81%
    19:00 +12°C° 0 mm 0 m/S 714 mmHg 88%
    20:00 +11°C° 0 mm 0 m/S 714 mmHg 87%
    21:00 +12°C° 0 mm 1 m/S 714 mmHg 87%
    22:00 +12°C° 0 mm 1 m/S 714 mmHg 87%
    23:00 +11°C° 0 mm 1 m/S 714 mmHg 86%

    übermorgen, 19 Oktober, Donnerstag

    Zeit Temperatur Niederschläge Wind Luftdruck Luftfeuchtigkeit
    00:00 +11°C° 0 mm 1 m/S 714 mmHg 86%
    01:00 +10°C° 0 mm 1 m/S 714 mmHg 85%
    02:00 +10°C° 0 mm 1 m/S 714 mmHg 84%
    03:00 +10°C° 0 mm 1 m/S 713 mmHg 82%
    04:00 +10°C° 0 mm 1 m/S 713 mmHg 81%
    05:00 +9°C° 0 mm 1 m/S 713 mmHg 80%
    06:00 +9°C° 0 mm 1 m/S 713 mmHg 79%
    07:00 +9°C° 0 mm 1 m/S 713 mmHg 78%
    08:00 +11°C° 0 mm 1 m/S 713 mmHg 71%
    09:00 +14°C° 0 mm 1 m/S 713 mmHg 65%
    10:00 +15°C° 0 mm 0 m/S 713 mmHg 59%
    11:00 +18°C° 0 mm 1 m/S 713 mmHg 57%
    12:00 +19°C° 0 mm 1 m/S 713 mmHg 55%
    13:00 +20°C° 0 mm 1 m/S 713 mmHg 54%
    14:00 +20°C° 0 mm 1 m/S 713 mmHg 59%
    15:00 +19°C° 0 mm 1 m/S 713 mmHg 64%
    16:00 +19°C° 0 mm 1 m/S 713 mmHg 70%
    17:00 +16°C° 0 mm 1 m/S 713 mmHg 76%
    18:00 +14°C° 0 mm 1 m/S 713 mmHg 81%
    19:00 +12°C° 0 mm 1 m/S 713 mmHg 87%
    20:00 +12°C° 0 mm 1 m/S 713 mmHg 86%
    21:00 +12°C° 0 mm 1 m/S 714 mmHg 85%
    22:00 +11°C° 0 mm 1 m/S 714 mmHg 84%
    23:00 +11°C° 0 mm 1 m/S 714 mmHg 82%

    20 Oktober, Freitag

    Zeit Temperatur Niederschläge Wind Luftdruck Luftfeuchtigkeit
    00:00 +11°C° 0 mm 1 m/S 714 mmHg 80%
    01:00 +11°C° 0 mm 1 m/S 714 mmHg 78%
    02:00 +10°C° 0 mm 1 m/S 714 mmHg 77%
    03:00 +10°C° 0 mm 1 m/S 714 mmHg 76%
    04:00 +10°C° 0 mm 1 m/S 713 mmHg 75%
    05:00 +10°C° 0 mm 1 m/S 714 mmHg 75%
    06:00 +9°C° 0 mm 1 m/S 714 mmHg 75%
    07:00 +9°C° 0 mm 1 m/S 714 mmHg 75%
    08:00 +12°C° 0 mm 1 m/S 714 mmHg 70%
    09:00 +14°C° 0 mm 1 m/S 715 mmHg 64%
    10:00 +16°C° 0 mm 2 m/S 715 mmHg 59%
    11:00 +17°C° 0 mm 2 m/S 715 mmHg 57%
    12:00 +18°C° 0 mm 2 m/S 715 mmHg 55%
    13:00 +19°C° 0 mm 2 m/S 715 mmHg 53%
    14:00 +20°C° 0 mm 1 m/S 715 mmHg 58%
    15:00 +20°C° 0 mm 1 m/S 715 mmHg 62%
    16:00 +17°C° 0 mm 0 m/S 715 mmHg 66%
    17:00 +16°C° 0 mm 1 m/S 715 mmHg 71%
    18:00 +15°C° 0 mm 1 m/S 715 mmHg 75%
    19:00 +13°C° 0 mm 1 m/S 715 mmHg 79%
    20:00 +12°C° 0 mm 2 m/S 715 mmHg 79%
    21:00 +12°C° 0 mm 2 m/S 716 mmHg 79%
    22:00 +12°C° 0 mm 2 m/S 716 mmHg 78%
    23:00 +12°C° 0 mm 2 m/S 716 mmHg 77%

    21 Oktober, Samstag

    Zeit Temperatur Niederschläge Wind Luftdruck Luftfeuchtigkeit
    00:00 +10°C° 0 mm 2 m/S 716 mmHg 76%
    01:00 +10°C° 0 mm 2 m/S 716 mmHg 75%
    02:00 +10°C° 0 mm 2 m/S 716 mmHg 73%
    03:00 +10°C° 0 mm 2 m/S 716 mmHg 72%
    04:00 +10°C° 0 mm 2 m/S 715 mmHg 70%
    05:00 +10°C° 0 mm 2 m/S 715 mmHg 70%
    06:00 +10°C° 0 mm 2 m/S 715 mmHg 69%
    07:00 +10°C° 0 mm 2 m/S 715 mmHg 68%
    08:00 +13°C° 0 mm 2 m/S 716 mmHg 65%
    09:00 +16°C° 0 mm 1 m/S 716 mmHg 61%
    10:00 +19°C° 0 mm 1 m/S 716 mmHg 57%
    11:00 +20°C° 0 mm 1 m/S 715 mmHg 54%
    12:00 +21°C° 0 mm 1 m/S 715 mmHg 51%
    13:00 +22°C° 0 mm 1 m/S 715 mmHg 48%
    14:00 +22°C° 0 mm 1 m/S 715 mmHg 54%
    15:00 +21°C° 0 mm 1 m/S 714 mmHg 60%
    16:00 +20°C° 0 mm 1 m/S 714 mmHg 66%
    17:00 +18°C° 0 mm 1 m/S 714 mmHg 72%
    18:00 +15°C° 0 mm 1 m/S 714 mmHg 78%
    19:00 +14°C° 0 mm 1 m/S 714 mmHg 83%
    20:00 +13°C° 0 mm 2 m/S 714 mmHg 85%
    21:00 +13°C° 0 mm 2 m/S 714 mmHg 86%
    22:00 +13°C° 0 mm 2 m/S 714 mmHg 87%
    23:00 +13°C° 0,1 mm 2 m/S 714 mmHg 88%

    22 Oktober, Sonntag

    Zeit Temperatur Niederschläge Wind Luftdruck Luftfeuchtigkeit
    00:00 +13°C° 0,1 mm 2 m/S 714 mmHg 89%
    01:00 +13°C° 0,1 mm 1 m/S 713 mmHg 89%
    02:00 +13°C° 0,7 mm 2 m/S 713 mmHg 90%
    03:00 +13°C° 0,7 mm 2 m/S 713 mmHg 92%
    04:00 +12°C° 0,7 mm 3 m/S 713 mmHg 93%
    05:00 +11°C° 2,3 mm 3 m/S 713 mmHg 93%
    06:00 +10°C° 2,3 mm 4 m/S 713 mmHg 93%
    07:00 +8°C° 2,3 mm 4 m/S 714 mmHg 93%
    08:00 +8°C° 0,8 mm 4 m/S 714 mmHg 93%
    09:00 +8°C° 0,8 mm 4 m/S 714 mmHg 92%
    10:00 +9°C° 0,8 mm 3 m/S 714 mmHg 92%
    11:00 +9°C° 0,8 mm 3 m/S 714 mmHg 90%
    12:00 +9°C° 0,8 mm 3 m/S 714 mmHg 89%
    13:00 +9°C° 0,8 mm 3 m/S 714 mmHg 88%
    14:00 +9°C° 0,8 mm 3 m/S 714 mmHg 88%
    15:00 +9°C° 0,8 mm 3 m/S 715 mmHg 88%
    16:00 +8°C° 0,8 mm 3 m/S 715 mmHg 88%
    17:00 +8°C° 0,4 mm 3 m/S 715 mmHg 89%
    18:00 +7°C° 0,4 mm 3 m/S 715 mmHg 89%
    19:00 +7°C° 0,4 mm 3 m/S 716 mmHg 89%
    20:00 +6°C° 0,1 mm 4 m/S 716 mmHg 90%
    21:00 +5°C° 0,1 mm 4 m/S 716 mmHg 90%
    22:00 +5°C° 0,1 mm 4 m/S 716 mmHg 90%
    23:00 +5°C° 0 mm 4 m/S 717 mmHg 90%
    Mehr zeigen